Location: Nebula Knoll Observatory
(43.6666°N, 71.0000°W)
Time: 01:01:31
(UTC-04:00)

Cosmos 1782 - Pass Details

Date: 30 May 2018
Orbit: 538 x 553 km, 82.5° (Epoch: 18 June)

Event Time Altitude Azimuth Distance (km) Brightness Sun altitude
Rises 03:56:59 0° 10° (N) 2,732 7.4 -10.7°
Reaches altitude 10° 04:00:12 10° 38° (NE) 1,828 7.1 -10.3°
Maximum altitude 04:02:13 13° 68° (ENE) 1,614 6.4 -10.0°
Drops below altitude 10° 04:04:13 10° 99° (E) 1,816 6.0 -9.8°
Sets 04:07:22 0° 126° (SE) 2,699 6.5 -9.3°
